Regional Weather Roundup
Issued by NWS

Home | Current Version | Previous Version | Graphics & Text | Print | Product List | Glossary On
Versions: 1 2 3 4 5 6 7 8 9 10 11 12 13 14 15 16 17 18 19 20 21 22 23 24 25 26 27 28 29 30 31 32 33 34 35 36 37 38 39 40 41 42 43 44 45 46 47 48 49 50
000
ASUS43 KBIS 181820
RWRND

NORTH DAKOTA REGIONAL WEATHER ROUNDUP
NATIONAL WEATHER SERVICE BISMARCK ND
1200 PM CST THU DEC 18 2014

NOTE: "FAIR" INDICATES FEW OR NO CLOUDS BELOW 12,000 FEET WITH NO
SIGNIFICANT WEATHER AND/OR OBSTRUCTIONS TO VISIBILITY.


NDZ001>003-009>011-017-181900-
NORTHWEST NORTH DAKOTA

CITY           SKY/WX    TMP DP  RH WIND       PRES   REMARKS
WILLISTON      CLOUDY    24  20  84 S6        29.99F WCI  17
6HR MIN TEMP:  21; 6HR MAX TEMP:  24;

MINOT          CLOUDY    22  18  85 S9        30.03F FOG     WCI  12
MINOT AFB      CLOUDY    21  21 100 S9        30.03F WCI  11
$$

NDZ018>021-031>035-040>046-181900-
SOUTHWEST NORTH DAKOTA

CITY           SKY/WX    TMP DP  RH WIND       PRES   REMARKS
BISMARCK       CLOUDY    21  19  92 S8        30.08F WCI  11
6HR MIN TEMP:  16; 6HR MAX TEMP:  21;

DICKINSON      CLOUDY    28  25  88 SW5       29.95F FOG
GARRISON         N/A     20  18  92 S8        30.03F WCI  10
6HR MIN TEMP:  18; 6HR MAX TEMP:  20;

HETTINGER ARPT CLOUDY    28  25  88 SW6       29.99S
$$

NDZ004>008-012>016-024-026-027-054-181900-
NORTHEAST NORTH DAKOTA

CITY           SKY/WX    TMP DP  RH WIND       PRES   REMARKS
GRAND FORKS    CLOUDY    17  13  84 S9        30.23F WCI   6
GRND FRKS AFB  CLOUDY    17  17  98 S9        30.22F WCI   5
DEVILS LAKE    CLOUDY    18   9  68 S10       30.09F WCI   6
$$

NDZ022-023-025-028>030-036>039-047>053-181900-
SOUTHEAST NORTH DAKOTA

CITY           SKY/WX    TMP DP  RH WIND       PRES   REMARKS
FARGO          CLOUDY    17  12  80 S10       30.24F WCI   5
6HR MIN TEMP:   7; 6HR MAX TEMP:  17;

JAMESTOWN      CLOUDY    19  14  81 S9        30.12F WCI   8
$$




USA.gov is the U.S. government's official web portal to all federal, state and local government web resources and services.